KD8BMB Weather Reports


time (UTC)temp
F
wind
direction
speed
knots
gust
knots
rain 1hr
in
rain 24hr
in
rain mn
in
humidity
%
barometer
mb
20260507040718 46 349 0.0 0.0 0.00 0.00 0.00 62 1012.9
20260507040214 46 319 0.0 0.0 0.00 0.00 0.00 61 1012.7
20260507035710 47 4 0.0 0.0 0.00 0.00 0.00 59 1012.6
20260507035205 47 287 0.0 0.0 0.00 0.00 0.00 58 1012.9
20260507034702 47 256 0.0 0.0 0.00 0.00 0.00 58 1012.9
20260507034200 47 305 0.0 0.0 0.00 0.00 0.00 57 1013.0
20260507033658 47 284 0.9 0.9 0.00 0.00 0.00 57 1013.0
20260507033155 48 264 0.9 0.9 0.00 0.00 0.00 57 1013.0
20260507032653 48 308 0.9 0.9 0.00 0.00 0.00 57 1012.7
20260507032148 48 288 0.9 1.7 0.00 0.00 0.00 56 1012.5
20260507031645 47 285 0.9 0.9 0.00 0.00 0.00 58 1012.7
20260507031142 48 271 0.0 0.0 0.00 0.00 0.00 58 1012.7
20260507030639 48 300 0.0 0.0 0.00 0.00 0.00 57 1012.7
20260507030137 48 249 0.0 0.0 0.00 0.00 0.00 57 1012.6
20260507025633 48 285 0.0 0.0 0.00 0.00 0.00 57 1012.9
20260507025130 48 240 0.9 0.9 0.00 0.00 0.00 56 1012.6
20260507024628 48 270 1.7 1.7 0.00 0.00 0.00 55 1012.7
20260507024125 48 288 0.9 0.9 0.00 0.00 0.00 56 1012.7
20260507023621 48 283 0.0 0.0 0.00 0.00 0.00 55 1012.4
20260507023119 48 283 0.0 0.0 0.00 0.00 0.00 55 1012.6
20260507022615 48 278 0.9 0.9 0.00 0.00 0.00 54 1012.6
20260507022110 48 287 0.9 0.9 0.00 0.00 0.00 55 1012.5
20260507021607 49 257 0.9 0.9 0.00 0.00 0.00 54 1012.5
20260507021103 49 280 0.9 0.9 0.00 0.00 0.00 55 1012.2
20260507020602 49 297 0.0 0.0 0.00 0.00 0.00 54 1012.4
20260507020057 49 284 0.9 0.9 0.00 0.00 0.00 55 1012.2
20260507015555 49 238 1.7 1.7 0.00 0.00 0.00 55 1012.3
20260507015047 49 230 0.9 0.9 0.00 0.00 0.00 56 1012.3
20260507014543 49 281 0.0 0.9 0.00 0.00 0.00 57 1012.2
20260507014033 49 245 0.9 0.9 0.00 0.00 0.00 56 1012.1
20260507013530 49 227 0.9 0.9 0.00 0.00 0.00 57 1012.3
20260507013027 49 261 0.0 0.0 0.00 0.00 0.00 57 1012.1
20260507012524 49 278 0.0 0.0 0.00 0.00 0.00 57 1012.0
20260507012020 49 271 0.0 0.0 0.00 0.00 0.00 57 1012.0
20260507011518 49 266 0.0 0.0 0.00 0.00 0.00 57 1012.1
20260507011014 49 269 0.0 0.0 0.00 0.00 0.00 58 1012.0
20260507010509 49 269 0.0 0.0 0.00 0.00 0.00 58 1012.0
20260507010006 49 238 0.0 0.0 0.00 0.00 0.00 57 1011.9
20260507005503 50 281 0.0 0.0 0.00 0.00 0.00 57 1012.0
20260507004959 50 261 0.0 0.0 0.00 0.00 0.00 57 1011.8
20260507004456 50 244 0.0 0.0 0.00 0.00 0.00 55 1012.0
20260507003954 50 284 0.0 0.0 0.00 0.00 0.00 56 1011.9
20260507003448 50 276 0.0 0.0 0.00 0.00 0.00 55 1012.0
20260507002944 50 277 0.0 0.0 0.00 0.00 0.00 56 1012.0
20260507002441 50 311 0.0 0.0 0.00 0.00 0.00 55 1011.9
20260507001938 50 319 0.9 0.9 0.00 0.00 0.00 52 1011.9
20260507001434 50 317 0.0 0.0 0.00 0.00 0.00 52 1011.9
20260507000932 51 305 0.0 0.0 0.00 0.00 0.00 53 1011.8
20260507000427 51 309 0.0 0.0 0.00 0.00 0.00 52 1011.6
20260506235923 51 292 2.6 4.3 0.00 0.00 0.00 51 1011.8
20260506235420 51 222 0.9 0.9 0.00 0.00 0.00 51 1011.7
20260506234910 51 277 0.0 0.0 0.00 0.00 0.00 51 1011.8
20260506234409 51 263 0.0 0.0 0.00 0.00 0.00 51 1011.5
20260506233906 51 242 1.7 1.7 0.00 0.00 0.00 51 1011.7
20260506233401 51 221 2.6 2.6 0.00 0.00 0.00 50 1011.7
20260506232859 51 206 3.5 4.3 0.00 0.00 0.00 48 1011.8
20260506232354 51 207 2.6 2.6 0.00 0.00 0.00 49 1011.9
20260506231851 51 320 1.7 2.6 0.00 0.00 0.00 50 1011.6
20260506231349 51 288 2.6 4.3 0.00 0.00 0.00 50 1011.6
20260506230846 51 226 1.7 1.7 0.00 0.00 0.00 49 1011.7
20260506230342 51 253 1.7 2.6 0.00 0.00 0.00 50 1011.9
20260506225838 51 222 1.7 1.7 0.00 0.00 0.00 50 1011.7
20260506225336 52 237 2.6 4.3 0.00 0.00 0.00 50 1011.6
20260506224833 52 203 0.9 0.9 0.00 0.00 0.00 51 1011.7
20260506224330 52 245 0.9 0.9 0.00 0.00 0.00 49 1011.8
20260506223826 52 235 2.6 2.6 0.00 0.00 0.00 49 1011.8
20260506223321 52 216 0.9 1.7 0.00 0.00 0.00 51 1012.0
20260506222819 52 214 4.3 5.2 0.00 0.00 0.00 49 1012.0
20260506222313 52 205 4.3 5.2 0.00 0.00 0.00 49 1012.2
20260506221807 52 281 1.7 4.3 0.00 0.00 0.00 50 1012.1
20260506221304 52 218 2.6 4.3 0.00 0.00 0.00 49 1012.1
20260506220802 52 286 0.0 0.9 0.00 0.00 0.00 49 1012.0
20260506220256 52 217 1.7 1.7 0.00 0.00 0.00 49 1012.0
20260506215753 53 291 7.0 8.7 0.00 0.00 0.00 48 1011.8
20260506215249 52 283 0.9 1.7 0.00 0.00 0.00 49 1012.0
20260506214745 53 232 0.9 2.6 0.00 0.00 0.00 49 1012.0
20260506214242 52 218 2.6 2.6 0.00 0.00 0.00 49 1012.0
20260506213741 52 294 2.6 4.3 0.00 0.00 0.00 49 1011.9
20260506213237 52 283 2.6 5.2 0.00 0.00 0.00 49 1011.9
20260506212735 53 289 2.6 5.2 0.00 0.00 0.00 48 1011.8
20260506212231 52 312 0.9 1.7 0.00 0.00 0.00 49 1012.1
20260506211725 52 273 0.0 0.9 0.00 0.00 0.00 50 1011.9
20260506211222 52 241 3.5 4.3 0.00 0.00 0.00 49 1012.0
20260506210719 53 236 2.6 2.6 0.00 0.00 0.00 48 1011.7
20260506210216 53 246 1.7 1.7 0.00 0.00 0.00 48 1011.9
20260506205713 52 312 2.6 2.6 0.00 0.00 0.00 49 1012.0
20260506205208 52 241 0.9 1.7 0.00 0.00 0.00 49 1011.9
20260506204706 52 231 0.9 4.3 0.00 0.00 0.00 48 1011.9
20260506204203 53 298 1.7 1.7 0.00 0.00 0.00 48 1011.9
20260506203701 53 283 2.6 4.3 0.00 0.00 0.00 47 1011.9
20260506203158 53 208 0.9 1.7 0.00 0.00 0.00 47 1012.1
20260506202656 52 234 0.0 0.0 0.00 0.00 0.00 47 1012.1
20260506202151 53 234 0.9 0.9 0.00 0.00 0.00 49 1012.0
20260506201649 52 206 3.5 4.3 0.00 0.00 0.00 48 1012.1
20260506201145 52 240 0.9 0.9 0.00 0.00 0.00 48 1012.2
20260506200642 52 311 2.6 2.6 0.00 0.00 0.00 48 1012.1
20260506200138 52 246 0.0 0.9 0.00 0.00 0.00 49 1012.3
20260506195635 52 246 2.6 4.3 0.00 0.00 0.00 49 1012.4
20260506195131 52 330 1.7 1.7 0.00 0.00 0.00 48 1012.0
20260506194629 52 271 0.9 0.9 0.00 0.00 0.00 49 1012.2
20260506194125 52 321 4.3 5.2 0.00 0.00 0.00 47 1012.4
20260506193623 51 278 0.9 2.6 0.00 0.00 0.00 48 1012.4
20260506193120 51 249 0.0 0.0 0.00 0.00 0.00 48 1012.5
20260506192617 51 327 3.5 4.3 0.00 0.00 0.00 50 1012.6
20260506192113 51 356 2.6 2.6 0.00 0.00 0.00 50 1012.5
20260506191609 51 323 2.6 4.3 0.00 0.00 0.00 50 1012.3
20260506191105 53 355 4.3 5.2 0.00 0.00 0.00 47 1012.6
20260506190603 52 294 3.5 4.3 0.00 0.00 0.00 48 1012.6
20260506190100 51 288 5.2 7.8 0.00 0.00 0.00 49 1012.6
20260506185557 51 286 2.6 4.3 0.00 0.00 0.00 49 1012.6
20260506185053 51 244 0.9 0.9 0.00 0.00 0.00 50 1012.5
20260506184551 51 290 3.5 4.3 0.00 0.00 0.00 49 1012.5
20260506184048 51 256 2.6 2.6 0.00 0.00 0.00 49 1012.6
20260506183544 53 332 3.5 7.8 0.00 0.00 0.00 47 1012.9
20260506183040 53 284 0.0 0.9 0.00 0.00 0.00 46 1012.7
20260506182538 52 228 2.6 5.2 0.00 0.00 0.00 48 1012.9
20260506182035 51 237 0.0 0.0 0.00 0.00 0.00 49 1012.7
20260506181533 51 241 4.3 6.1 0.00 0.00 0.00 49 1012.9
20260506181029 51 312 1.7 1.7 0.00 0.00 0.00 49 1012.9
20260506180526 51 228 4.3 7.0 0.00 0.00 0.00 49 1012.7
20260506180023 50 341 2.6 4.3 0.00 0.00 0.00 49 1013.0
20260506175519 50 316 0.0 0.0 0.00 0.00 0.00 52 1012.9
20260506175016 50 300 0.0 0.0 0.00 0.00 0.00 50 1012.7
20260506174515 50 326 1.7 2.6 0.00 0.00 0.00 49 1013.0
20260506174010 50 56 0.0 0.9 0.00 0.00 0.00 52 1013.4
20260506173508 50 357 0.0 0.0 0.00 0.00 0.00 53 1013.2
20260506173005 49 25 0.9 1.7 0.00 0.00 0.00 54 1013.2
20260506172502 49 2 2.6 5.2 0.00 0.00 0.00 53 1013.3
20260506171958 50 1 0.9 1.7 0.00 0.00 0.00 53 1012.9
20260506171455 50 24 0.0 0.0 0.00 0.00 0.00 53 1013.1
20260506170953 51 309 0.0 0.0 0.00 0.00 0.00 54 1013.0
20260506170449 52 10 4.3 7.0 0.00 0.00 0.00 54 1013.2
20260506165942 51 319 0.0 0.0 0.00 0.00 0.00 53 1013.0
20260506165441 50 302 5.2 7.0 0.00 0.00 0.00 54 1013.0
20260506164936 50 43 3.5 4.3 0.00 0.00 0.00 54 1013.2
20260506164433 49 278 0.9 1.7 0.00 0.00 0.00 58 1013.1
20260506163931 49 74 0.0 0.0 0.00 0.00 0.00 58 1013.1
20260506163425 50 47 0.0 0.9 0.00 0.00 0.00 55 1013.3
20260506162915 52 124 0.0 0.0 0.00 0.00 0.00 54 1013.5
20260506162413 51 234 0.0 0.9 0.00 0.00 0.00 57 1013.5
20260506161910 48 46 0.9 0.9 0.00 0.00 0.00 61 1013.6
20260506161408 48 304 0.0 0.0 0.00 0.00 0.00 60 1013.3
20260506160900 50 115 0.0 1.7 0.00 0.00 0.00 58 1013.4
20260506160356 49 298 0.0 0.9 0.00 0.00 0.00 61 1013.5
20260506155854 47 4 0.9 1.7 0.00 0.00 0.00 65 1013.5
20260506155351 48 36 4.3 6.1 0.00 0.00 0.00 63 1013.5
20260506153508 48 111 0.9 1.7 0.00 0.00 0.00 62 1013.3
20260506153006 47 311 2.6 4.3 0.00 0.00 0.00 63 1013.4
20260506152502 47 58 4.3 6.1 0.00 0.00 0.00 64 1013.2
20260506152001 48 344 3.5 5.2 0.00 0.00 0.00 63 1013.2
20260506151458 48 233 0.0 0.0 0.00 0.00 0.00 63 1013.1
20260506150955 46 342 0.9 1.7 0.00 0.00 0.00 64 1013.1
20260506150451 46 334 3.5 4.3 0.00 0.00 0.00 67 1013.1
20260506145948 46 11 2.6 4.3 0.00 0.00 0.00 67 1013.2
20260506145444 46 351 0.9 0.9 0.00 0.00 0.00 67 1013.1
20260506144942 47 278 2.6 2.6 0.00 0.00 0.00 66 1013.2
20260506144438 46 49 2.6 5.2 0.00 0.00 0.00 67 1013.0
20260506143937 46 40 1.7 1.7 0.00 0.00 0.00 67 1013.2
20260506143433 46 33 3.5 4.3 0.00 0.00 0.00 66 1012.7
20260506142932 46 356 0.9 1.7 0.00 0.00 0.00 65 1013.0
20260506142430 47 13 0.9 1.7 0.00 0.00 0.00 65 1012.9
20260506141927 47 68 0.0 0.9 0.00 0.00 0.00 67 1012.5
20260506141425 47 68 0.9 1.7 0.00 0.00 0.00 67 1012.9
20260506140923 46 76 0.9 0.9 0.00 0.00 0.00 69 1012.5
20260506140420 46 46 2.6 4.3 0.00 0.00 0.00 68 1012.7
20260506135917 44 61 3.5 5.2 0.00 0.00 0.00 71 1012.9
20260506135414 46 64 0.0 0.9 0.00 0.00 0.00 71 1012.4
20260506134910 46 34 1.7 1.7 0.00 0.00 0.00 70 1012.6
20260506134406 46 358 1.7 2.6 0.00 0.00 0.00 71 1012.7
20260506133903 44 52 0.9 1.7 0.00 0.00 0.00 72 1012.5
20260506133400 44 88 2.6 4.3 0.00 0.00 0.00 73 1012.3
20260506132857 44 34 1.7 2.6 0.00 0.00 0.00 74 1012.2
20260506132354 44 349 0.0 0.9 0.00 0.00 0.00 74 1012.4
20260506131852 43 340 3.5 5.2 0.00 0.00 0.00 75 1012.3
20260506131348 44 30 0.9 1.7 0.00 0.00 0.00 75 1012.3
20260506130845 43 57 1.7 1.7 0.00 0.00 0.00 75 1012.2
20260506130341 42 341 0.9 2.6 0.00 0.00 0.00 76 1012.3
20260506125840 43 66 0.0 0.9 0.00 0.00 0.00 75 1012.1
20260506125338 43 54 0.0 0.0 0.00 0.00 0.00 74 1012.2
20260506124836 42 24 1.7 1.7 0.00 0.00 0.00 74 1012.0
20260506124332 43 4 0.9 1.7 0.00 0.00 0.00 73 1012.3
20260506123830 42 11 0.9 0.9 0.00 0.00 0.00 73 1012.2
20260506123328 41 57 0.9 1.7 0.00 0.00 0.00 74 1012.1
20260506122825 42 72 2.6 4.3 0.00 0.00 0.00 75 1011.9
20260506122322 41 353 0.0 0.0 0.00 0.00 0.00 77 1011.8
20260506121820 40 47 1.7 1.7 0.00 0.00 0.00 78 1011.8
20260506121317 40 70 0.9 0.9 0.00 0.00 0.00 77 1011.5
20260506120814 40 77 0.9 1.7 0.00 0.00 0.00 78 1011.7
20260506120312 40 61 0.0 0.9 0.00 0.00 0.00 79 1011.5
20260506115809 39 45 0.9 0.9 0.00 0.00 0.00 80 1011.7
20260506115307 39 65 3.5 6.1 0.00 0.00 0.00 80 1011.5
20260506114805 39 65 1.7 1.7 0.00 0.00 0.00 84 1011.5
20260506114303 39 295 2.6 4.3 0.00 0.00 0.00 84 1011.4
20260506113801 39 355 1.7 1.7 0.00 0.00 0.00 85 1011.5
20260506113258 39 109 0.9 1.7 0.00 0.00 0.00 85 1011.5
20260506112754 39 9 4.3 5.2 0.00 0.00 0.00 86 1011.3
20260506112252 39 17 1.7 1.7 0.00 0.00 0.00 86 1011.4
20260506111749 38 0 1.7 2.6 0.00 0.00 0.00 87 1011.3
20260506111247 38 11 1.7 1.7 0.00 0.00 0.00 88 1011.1
20260506110744 37 74 0.0 0.9 0.00 0.00 0.00 90 1010.7
20260506110242 37 16 1.7 2.6 0.00 0.00 0.00 91 1011.1
20260506105738 36 25 2.6 2.6 0.00 0.00 0.00 92 1010.8
20260506105235 36 325 0.0 0.0 0.00 0.00 0.00 92 1010.8
20260506104732 36 323 0.0 0.0 0.00 0.00 0.00 92 1010.8
20260506104230 36 320 0.0 0.0 0.00 0.00 0.00 91 1010.7
20260506103727 36 325 0.0 0.0 0.00 0.00 0.00 90 1010.4
20260506103224 37 329 0.0 0.0 0.00 0.00 0.00 89 1010.4
20260506102722 37 315 0.0 0.0 0.00 0.00 0.00 89 1010.2
20260506102220 37 311 0.0 0.0 0.00 0.00 0.00 88 1010.2
20260506101716 37 274 0.0 0.0 0.00 0.00 0.00 87 1009.9
20260506101213 38 348 0.0 0.0 0.00 0.00 0.00 86 1010.0
20260506100711 38 339 0.0 0.0 0.00 0.00 0.00 86 1009.8
20260506100209 38 5 0.9 1.7 0.00 0.00 0.00 85 1009.6
20260506095707 39 324 0.0 0.0 0.00 0.00 0.00 85 1010.0
20260506095204 39 328 0.0 0.0 0.00 0.00 0.00 84 1009.5
20260506094701 39 349 0.0 0.0 0.00 0.00 0.00 83 1009.3
20260506094158 39 7 0.0 0.0 0.00 0.00 0.00 83 1009.5
20260506093657 39 42 0.0 0.0 0.00 0.00 0.00 83 1009.5
20260506093154 40 39 0.9 0.9 0.00 0.00 0.00 83 1009.3
20260506092651 40 14 0.0 0.0 0.00 0.00 0.00 82 1009.7
20260506092149 40 53 0.0 0.9 0.00 0.00 0.00 83 1009.6
20260506091647 40 32 0.9 0.9 0.00 0.00 0.00 82 1009.5
20260506091144 40 13 0.0 0.0 0.00 0.00 0.00 82 1009.4
20260506090642 40 8 0.0 0.0 0.00 0.00 0.00 83 1009.3
20260506090138 40 33 0.9 1.7 0.00 0.00 0.00 83 1009.4
20260506085635 41 52 0.9 0.9 0.00 0.00 0.00 84 1009.5
20260506085131 41 19 0.9 0.9 0.00 0.00 0.00 86 1009.5
20260506084628 41 330 0.0 0.0 0.00 0.00 0.00 86 1009.5
20260506084124 41 343 0.0 0.0 0.00 0.00 0.00 87 1009.5
20260506083621 41 350 0.9 0.9 0.00 0.00 0.00 88 1009.5
20260506083119 41 5 1.7 1.7 0.00 0.00 0.00 91 1009.6
20260506082616 41 306 0.0 0.0 0.00 0.00 0.00 92 1009.6
20260506082111 42 21 0.0 0.9 0.00 0.00 0.00 93 1009.3
20260506081610 42 15 0.9 0.9 0.00 0.00 0.00 93 1009.5
20260506081107 42 324 0.0 0.0 0.00 0.00 0.00 94 1009.7
20260506080605 42 316 0.0 0.0 0.00 0.00 0.00 93 1009.6
20260506073044 43 325 0.0 0.0 0.00 0.00 0.00 91 1009.0
20260506072542 44 311 0.0 0.0 0.00 0.00 0.00 91 1009.2
20260506072039 44 313 0.0 0.0 0.00 0.00 0.00 91 1009.0
20260506071537 44 320 0.0 0.0 0.00 0.00 0.00 90 1009.3
20260506071034 44 311 0.9 0.9 0.00 0.00 0.00 90 1009.1
20260506070531 44 300 0.0 0.9 0.00 0.00 0.00 90 1008.9
20260506062509 45 324 0.0 0.0 0.00 0.00 0.00 86 1009.0
20260506062005 45 3 0.0 0.0 0.00 0.00 0.00 85 1009.1
20260506061501 45 309 0.0 0.0 0.00 0.00 0.00 85 1009.1
20260506060959 45 298 0.0 0.0 0.00 0.00 0.00 84 1009.3
20260506060457 46 308 0.0 0.0 0.00 0.00 0.00 84 1009.2
20260506050926 46 290 1.7 1.7 0.00 0.00 0.00 70 1008.8
20260506050424 47 302 0.0 0.0 0.00 0.00 0.00 67 1009.0
20260506044914 47 310 0.9 0.9 0.00 0.00 0.00 65 1009.1
20260506044412 47 299 0.0 0.0 0.00 0.00 0.00 64 1008.8
20260506043909 47 281 0.0 0.0 0.00 0.00 0.00 65 1008.5
20260506043406 47 326 0.9 0.9 0.00 0.00 0.00 64 1008.6
20260506042904 47 302 1.7 1.7 0.00 0.00 0.00 65 1008.6
20260506042403 47 275 0.0 0.0 0.00 0.00 0.00 66 1008.6
20260506041901 47 308 0.0 0.0 0.00 0.00 0.00 66 1008.6
20260506041358 47 267 0.0 0.0 0.00 0.00 0.00 65 1008.4